Time,TemperatureF,DewpointF,PressureIn,WindDirection,WindDirectionDegrees,WindSpeedMPH,WindSpeedGustMPH,Humidity,HourlyPrecipIn,Conditions,Clouds,dailyrainin,SoftwareType,DateUTC
2013-07-09 00:10:00,66.3,65.0,30.26,SSW,194,0.0,0.0,96,0.00,,,0.00,weatherlink.com 1.10,2013-07-09 04:10:00,
2013-07-09 00:25:00,66.4,66.0,30.26,SSW,194,0.0,0.0,97,0.00,,,0.00,weatherlink.com 1.10,2013-07-09 04:25:00,
2013-07-09 00:40:00,66.5,66.0,30.26,SSW,195,0.0,0.0,97,0.00,,,0.00,weatherlink.com 1.10,2013-07-09 04:40:00,
2013-07-09 00:55:00,66.8,66.0,30.27,SSW,194,0.0,0.0,97,0.00,,,0.00,weatherlink.com 1.10,2013-07-09 04:55:00,
2013-07-09 01:10:00,66.9,66.0,30.26,SSW,194,0.0,0.0,97,0.00,,,0.00,weatherlink.com 1.10,2013-07-09 05:10:00,
2013-07-09 01:25:00,66.9,66.0,30.26,SSW,194,0.0,0.0,97,0.00,,,0.00,weatherlink.com 1.10,2013-07-09 05:25:00,
2013-07-09 01:40:00,66.9,66.0,30.26,SSW,194,0.0,0.0,97,0.00,,,0.00,weatherlink.com 1.10,2013-07-09 05:40:00,
2013-07-09 01:55:00,66.9,66.0,30.25,SSW,194,0.0,0.0,96,0.00,,,0.00,weatherlink.com 1.10,2013-07-09 05:55:00,
2013-07-09 02:10:00,66.7,66.0,30.25,SSW,194,0.0,0.0,96,0.00,,,0.00,weatherlink.com 1.10,2013-07-09 06:10:00,
2013-07-09 02:25:00,66.6,66.0,30.25,SSW,194,0.0,0.0,96,0.00,,,0.00,weatherlink.com 1.10,2013-07-09 06:25:00,
2013-07-09 02:40:00,66.3,65.0,30.25,SSW,194,0.0,0.0,96,0.00,,,0.00,weatherlink.com 1.10,2013-07-09 06:40:00,
2013-07-09 02:55:00,65.9,65.0,30.25,SSW,194,0.0,0.0,96,0.00,,,0.00,weatherlink.com 1.10,2013-07-09 06:55:00,
2013-07-09 03:10:00,65.8,65.0,30.25,SSW,194,0.0,0.0,97,0.00,,,0.00,weatherlink.com 1.10,2013-07-09 07:10:00,
2013-07-09 03:26:00,65.6,65.0,30.24,SSW,194,0.0,0.0,97,0.00,,,0.00,weatherlink.com 1.10,2013-07-09 07:26:00,
2013-07-09 03:41:00,65.5,65.0,30.24,SSW,195,0.0,0.0,97,0.00,,,0.00,weatherlink.com 1.10,2013-07-09 07:41:00,
2013-07-09 03:56:00,65.6,65.0,30.24,SSW,194,0.0,0.0,97,0.00,,,0.00,weatherlink.com 1.10,2013-07-09 07:56:00,
2013-07-09 04:11:00,65.4,65.0,30.24,SSW,194,0.0,0.0,97,0.00,,,0.00,weatherlink.com 1.10,2013-07-09 08:11:00,
2013-07-09 04:26:00,65.1,64.0,30.24,SSW,194,0.0,0.0,97,0.00,,,0.00,weatherlink.com 1.10,2013-07-09 08:26:00,
2013-07-09 04:41:00,64.9,64.0,30.24,SSW,194,0.0,0.0,97,0.00,,,0.00,weatherlink.com 1.10,2013-07-09 08:41:00,
2013-07-09 04:56:00,65.0,65.0,30.24,SSW,194,0.0,0.0,98,0.00,,,0.00,weatherlink.com 1.10,2013-07-09 08:56:00,
2013-07-09 05:11:00,65.3,65.0,30.24,SSW,195,0.0,0.0,98,0.00,,,0.00,weatherlink.com 1.10,2013-07-09 09:11:00,
2013-07-09 05:26:00,65.2,65.0,30.24,SSW,195,0.0,0.0,98,0.00,,,0.00,weatherlink.com 1.10,2013-07-09 09:26:00,
2013-07-09 05:41:00,64.8,64.0,30.23,SSW,195,0.0,0.0,97,0.00,,,0.00,weatherlink.com 1.10,2013-07-09 09:41:00,
2013-07-09 05:56:00,64.6,64.0,30.23,SSW,195,0.0,0.0,98,0.00,,,0.00,weatherlink.com 1.10,2013-07-09 09:56:00,
2013-07-09 06:11:00,64.5,64.0,30.23,SSW,195,0.0,0.0,98,0.00,,,0.00,weatherlink.com 1.10,2013-07-09 10:11:00,
2013-07-09 06:26:00,64.6,64.0,30.23,SSW,195,0.0,0.0,98,0.00,,,0.00,weatherlink.com 1.10,2013-07-09 10:26:00,
2013-07-09 06:41:00,64.5,64.0,30.23,SSW,195,0.0,0.0,98,0.00,,,0.00,weatherlink.com 1.10,2013-07-09 10:41:00,
2013-07-09 06:56:00,64.5,64.0,30.24,SSW,195,0.0,0.0,98,0.00,,,0.00,weatherlink.com 1.10,2013-07-09 10:56:00,
2013-07-09 07:11:00,64.7,64.0,30.24,SSW,195,0.0,0.0,98,0.00,,,0.00,weatherlink.com 1.10,2013-07-09 11:11:00,
2013-07-09 07:26:00,65.0,65.0,30.24,SSW,195,0.0,0.0,98,0.00,,,0.00,weatherlink.com 1.10,2013-07-09 11:26:00,
2013-07-09 07:41:00,65.3,65.0,30.24,SSW,195,0.0,0.0,98,0.00,,,0.00,weatherlink.com 1.10,2013-07-09 11:41:00,
2013-07-09 07:56:00,65.6,65.0,30.24,SSW,195,0.0,0.0,98,0.00,,,0.00,weatherlink.com 1.10,2013-07-09 11:56:00,
2013-07-09 08:11:00,65.8,65.0,30.24,SSW,195,0.0,0.0,98,0.00,,,0.00,weatherlink.com 1.10,2013-07-09 12:11:00,
2013-07-09 08:26:00,66.0,66.0,30.25,SSW,195,0.0,0.0,98,0.00,,,0.00,weatherlink.com 1.10,2013-07-09 12:26:00,
2013-07-09 08:41:00,66.2,66.0,30.25,SSW,195,0.0,0.0,98,0.00,,,0.00,weatherlink.com 1.10,2013-07-09 12:41:00,
2013-07-09 08:56:00,66.4,66.0,30.25,SSW,195,0.0,0.0,98,0.00,,,0.00,weatherlink.com 1.10,2013-07-09 12:56:00,
2013-07-09 09:11:00,66.7,66.0,30.26,SSW,195,0.0,0.0,98,0.00,,,0.00,weatherlink.com 1.10,2013-07-09 13:11:00,
2013-07-09 09:26:00,67.0,67.0,30.26,SSW,195,0.0,0.0,98,0.00,,,0.00,weatherlink.com 1.10,2013-07-09 13:26:00,
2013-07-09 09:41:00,67.8,67.0,30.26,SSW,195,0.0,0.0,97,0.00,,,0.00,weatherlink.com 1.10,2013-07-09 13:41:00,
2013-07-09 09:56:00,68.5,67.0,30.25,SSW,195,0.0,0.0,96,0.00,,,0.00,weatherlink.com 1.10,2013-07-09 13:56:00,
2013-07-09 10:11:00,69.2,68.0,30.25,SE,141,0.0,0.0,95,0.00,,,0.00,weatherlink.com 1.10,2013-07-09 14:11:00,
2013-07-09 10:26:00,69.9,68.0,30.25,SE,141,0.0,2.0,94,0.00,,,0.00,weatherlink.com 1.10,2013-07-09 14:26:00,
2013-07-09 10:41:00,70.8,69.0,30.26,SE,143,0.0,1.0,93,0.00,,,0.00,weatherlink.com 1.10,2013-07-09 14:41:00,
2013-07-09 10:56:00,71.9,70.0,30.26,SE,142,2.0,2.0,93,0.00,,,0.00,weatherlink.com 1.10,2013-07-09 14:56:00,
2013-07-09 11:11:00,72.1,69.0,30.25,SE,145,0.0,2.0,90,0.00,,,0.00,weatherlink.com 1.10,2013-07-09 15:11:00,
2013-07-09 11:26:00,73.2,71.0,30.25,SE,146,0.0,3.0,91,0.00,,,0.00,weatherlink.com 1.10,2013-07-09 15:26:00,
2013-07-09 11:41:00,74.9,72.0,30.25,SSW,205,1.0,1.0,89,0.00,,,0.00,weatherlink.com 1.10,2013-07-09 15:41:00,
2013-07-09 11:56:00,76.1,71.0,30.25,NNE,28,0.0,3.0,84,0.00,,,0.00,weatherlink.com 1.10,2013-07-09 15:56:00,
2013-07-09 12:11:00,77.4,72.0,30.25,NE,56,0.0,1.0,82,0.00,,,0.00,weatherlink.com 1.10,2013-07-09 16:11:00,
2013-07-09 12:26:00,78.0,73.0,30.24,NNE,26,1.0,2.0,83,0.00,,,0.00,weatherlink.com 1.10,2013-07-09 16:26:00,
2013-07-09 12:41:00,78.3,71.0,30.24,South,171,0.0,2.0,77,0.00,,,0.00,weatherlink.com 1.10,2013-07-09 16:41:00,
2013-07-09 12:56:00,80.3,74.0,30.23,ESE,121,0.0,1.0,80,0.00,,,0.00,weatherlink.com 1.10,2013-07-09 16:56:00,
2013-07-09 13:12:00,81.0,72.0,30.23,SE,141,0.0,1.0,74,0.00,,,0.00,weatherlink.com 1.10,2013-07-09 17:12:00,
2013-07-09 13:27:00,79.9,73.0,30.22,SE,138,1.0,1.0,78,0.00,,,0.00,weatherlink.com 1.10,2013-07-09 17:27:00,
2013-07-09 13:42:00,77.5,72.0,30.22,SE,142,2.0,2.0,83,0.00,,,0.00,weatherlink.com 1.10,2013-07-09 17:42:00,
2013-07-09 13:57:00,74.5,67.0,30.23,SSW,194,2.0,5.0,78,0.00,,,0.00,weatherlink.com 1.10,2013-07-09 17:57:00,
2013-07-09 14:12:00,72.1,67.0,30.23,SE,134,2.0,6.0,84,0.00,,,0.00,weatherlink.com 1.10,2013-07-09 18:12:00,
2013-07-09 14:27:00,71.4,66.0,30.21,SSE,156,1.0,6.0,83,0.00,,,0.00,weatherlink.com 1.10,2013-07-09 18:27:00,
2013-07-09 14:42:00,71.7,68.0,30.22,SW,233,1.0,2.0,87,0.00,,,0.00,weatherlink.com 1.10,2013-07-09 18:42:00,
2013-07-09 14:57:00,73.6,70.0,30.20,SSW,194,1.0,2.0,87,0.00,,,0.00,weatherlink.com 1.10,2013-07-09 18:57:00,
2013-07-09 15:12:00,76.7,71.0,30.20,SSW,192,1.0,1.0,83,0.00,,,0.00,weatherlink.com 1.10,2013-07-09 19:12:00,
2013-07-09 15:27:00,77.4,72.0,30.20,WSW,246,0.0,1.0,82,0.00,,,0.00,weatherlink.com 1.10,2013-07-09 19:27:00,
2013-07-09 15:42:00,76.7,71.0,30.19,SSW,205,1.0,2.0,81,0.00,,,0.00,weatherlink.com 1.10,2013-07-09 19:42:00,
2013-07-09 15:57:00,74.7,70.0,30.19,SSW,205,0.0,2.0,85,0.00,,,0.00,weatherlink.com 1.10,2013-07-09 19:57:00,
2013-07-09 16:12:00,73.8,70.0,30.18,SSW,205,0.0,1.0,89,0.00,,,0.00,weatherlink.com 1.10,2013-07-09 20:12:00,
2013-07-09 16:27:00,72.8,70.0,30.18,SSW,205,0.0,1.0,91,0.00,,,0.00,weatherlink.com 1.10,2013-07-09 20:27:00,
2013-07-09 16:42:00,72.5,70.0,30.18,SSW,205,0.0,0.0,91,0.01,,,0.01,weatherlink.com 1.10,2013-07-09 20:42:00,
2013-07-09 16:57:00,73.2,71.0,30.17,SSW,205,0.0,0.0,92,0.01,,,0.01,weatherlink.com 1.10,2013-07-09 20:57:00,
2013-07-09 17:12:00,73.2,71.0,30.17,SW,218,0.0,0.0,91,0.01,,,0.01,weatherlink.com 1.10,2013-07-09 21:12:00,
2013-07-09 17:27:00,74.2,71.0,30.17,SW,218,0.0,0.0,90,0.01,,,0.01,weatherlink.com 1.10,2013-07-09 21:27:00,
2013-07-09 17:42:00,74.7,72.0,30.16,NNW,342,0.0,3.0,90,0.00,,,0.01,weatherlink.com 1.10,2013-07-09 21:42:00,
2013-07-09 17:57:00,74.6,71.0,30.16,NNW,342,0.0,2.0,89,0.00,,,0.01,weatherlink.com 1.10,2013-07-09 21:57:00,
2013-07-09 18:12:00,74.7,71.0,30.16,NNW,342,0.0,0.0,89,0.00,,,0.01,weatherlink.com 1.10,2013-07-09 22:12:00,
2013-07-09 18:27:00,74.6,72.0,30.16,NNW,343,0.0,0.0,90,0.00,,,0.01,weatherlink.com 1.10,2013-07-09 22:27:00,
2013-07-09 18:42:00,74.9,72.0,30.17,NNW,343,0.0,1.0,89,0.00,,,0.01,weatherlink.com 1.10,2013-07-09 22:42:00,
2013-07-09 18:57:00,74.6,71.0,30.17,SE,143,0.0,0.0,89,0.00,,,0.01,weatherlink.com 1.10,2013-07-09 22:57:00,
2013-07-09 19:12:00,73.7,71.0,30.16,SE,142,1.0,1.0,90,0.00,,,0.01,weatherlink.com 1.10,2013-07-09 23:12:00,
2013-07-09 19:27:00,72.8,70.0,30.17,SE,142,0.0,1.0,91,0.00,,,0.01,weatherlink.com 1.10,2013-07-09 23:27:00,
2013-07-09 19:42:00,72.2,70.0,30.17,SE,143,0.0,0.0,93,0.00,,,0.01,weatherlink.com 1.10,2013-07-09 23:42:00,
2013-07-09 19:57:00,71.7,70.0,30.18,SE,142,0.0,0.0,93,0.00,,,0.01,weatherlink.com 1.10,2013-07-09 23:57:00,
2013-07-09 20:12:00,71.2,69.0,30.17,SE,145,0.0,0.0,91,0.00,,,0.01,weatherlink.com 1.10,2013-07-10 00:12:00,
2013-07-09 20:27:00,70.8,68.0,30.17,SE,145,0.0,0.0,91,0.00,,,0.01,weatherlink.com 1.10,2013-07-10 00:27:00,
2013-07-09 20:42:00,70.4,68.0,30.19,SE,145,0.0,0.0,93,0.00,,,0.01,weatherlink.com 1.10,2013-07-10 00:42:00,
2013-07-09 20:57:00,70.1,68.0,30.19,SE,145,0.0,1.0,94,0.00,,,0.01,weatherlink.com 1.10,2013-07-10 00:57:00,
2013-07-09 21:12:00,70.0,69.0,30.20,SE,145,0.0,1.0,95,0.00,,,0.01,weatherlink.com 1.10,2013-07-10 01:12:00,
2013-07-09 21:27:00,70.0,69.0,30.19,SE,145,1.0,2.0,95,0.00,,,0.01,weatherlink.com 1.10,2013-07-10 01:27:00,
2013-07-09 21:42:00,70.1,69.0,30.20,SE,145,0.0,0.0,95,0.00,,,0.01,weatherlink.com 1.10,2013-07-10 01:42:00,
2013-07-09 21:57:00,69.9,69.0,30.20,SE,145,0.0,0.0,96,0.00,,,0.01,weatherlink.com 1.10,2013-07-10 01:57:00,
2013-07-09 22:12:00,69.6,69.0,30.21,SE,146,0.0,1.0,96,0.00,,,0.01,weatherlink.com 1.10,2013-07-10 02:12:00,
2013-07-09 22:27:00,69.4,68.0,30.20,SE,145,0.0,1.0,96,0.00,,,0.01,weatherlink.com 1.10,2013-07-10 02:27:00,
2013-07-09 22:42:00,69.4,68.0,30.20,SE,145,0.0,0.0,96,0.00,,,0.01,weatherlink.com 1.10,2013-07-10 02:42:00,
2013-07-09 22:57:00,69.5,68.0,30.20,SE,145,0.0,1.0,96,0.00,,,0.01,weatherlink.com 1.10,2013-07-10 02:57:00,
2013-07-09 23:12:00,69.4,69.0,30.20,SE,145,0.0,0.0,97,0.00,,,0.01,weatherlink.com 1.10,2013-07-10 03:12:00,
2013-07-09 23:27:00,69.0,68.0,30.20,SE,145,0.0,1.0,96,0.00,,,0.01,weatherlink.com 1.10,2013-07-10 03:27:00,
2013-07-09 23:42:00,68.4,67.0,30.20,SE,145,0.0,1.0,96,0.00,,,0.01,weatherlink.com 1.10,2013-07-10 03:42:00,
2013-07-09 23:57:00,68.3,67.0,30.21,SE,145,0.0,0.0,96,0.00,,,0.01,weatherlink.com 1.10,2013-07-10 03:57:00,